Vorticity
nan nan nan nan nan nan nan nan nan nan nan nan nan nan nan nan nan nan nan nan nan nan nan nan nan nan nan nan nan nan nan nan nan nan nan nan nan nan nan nan nan nan nan nan nan nan nan nan nan
nan 8 7 9 8 6 6 7 6 4 2 6 10 7 8 6 7 13 9 12 10 5 7 6 5 6 7 6 5 4 5 5 4 5 6 5 5 4 4 5 5 6 6 6 6 6 5 5 nan
nan 7 8 7 7 6 7 6 4 5 11 10 6 7 8 6 12 5 8 16 7 5 6 7 7 7 6 5 5 5 6 5 4 6 7 7 5 5 5 4 5 6 6 7 7 5 5 4 nan
nan 5 8 9 6 5 7 4 2 9 12 7 7 7 5 10 9 10 16 8 5 5 6 6 8 7 5 5 5 6 6 4 5 6 7 8 6 6 6 4 5 5 6 7 6 5 3 3 nan
nan 8 7 7 6 7 6 5 5 7 6 6 8 6 5 6 14 17 9 7 5 5 6 6 6 6 5 5 7 7 6 4 5 5 5 7 6 9 6 4 4 5 6 7 6 4 3 3 nan
nan 9 8 6 4 5 7 7 8 5 7 9 8 8 5 11 12 7 9 7 5 6 6 6 5 6 6 7 7 5 5 5 6 4 4 5 8 9 5 4 4 4 5 6 6 5 4 4 nan
nan 8 7 8 6 2 6 6 7 7 6 6 9 7 8 10 8 10 10 8 7 6 6 6 6 4 6 7 5 5 5 7 7 7 9 9 8 6 5 3 4 4 5 6 5 4 4 4 nan
nan 8 8 9 10 3 3 8 3 6 6 6 10 8 7 11 12 8 9 8 7 6 6 6 6 6 6 4 5 6 6 6 8 10 8 6 6 5 5 5 5 5 5 5 5 6 5 6 nan
nan 11 10 8 6 7 7 7 4 6 8 9 6 5 13 16 7 6 7 7 6 7 6 5 6 6 6 5 4 5 6 5 4 4 4 5 5 5 3 4 5 5 5 5 5 5 6 4 nan
nan 7 12 8 9 9 7 6 8 8 6 5 -1 1 17 17 7 6 4 5 7 6 6 6 7 6 5 6 6 4 5 5 5 6 4 4 6 5 5 5 5 5 5 5 6 6 6 4 nan
nan 8 6 7 9 8 7 6 8 5 7 3 0 4 11 14 11 6 6 6 5 4 5 8 7 7 5 5 4 5 6 6 7 7 5 5 5 6 6 6 6 5 6 6 6 7 6 5 nan
nan 7 10 9 6 8 8 6 6 7 5 3 6 9 13 13 10 7 7 7 5 5 5 6 7 7 5 5 7 6 6 6 7 7 6 5 6 6 6 6 7 6 6 6 7 7 7 7 nan
nan 9 8 8 7 8 7 5 9 11 6 4 3 4 12 16 11 6 5 8 6 7 5 6 7 7 7 5 6 6 6 6 7 7 6 5 6 6 7 7 7 7 7 7 7 7 7 7 nan
nan 12 7 2 1 5 8 5 5 7 3 4 7 5 8 15 15 10 9 7 7 7 7 6 7 8 6 6 6 5 6 7 7 6 7 5 5 6 6 7 7 7 7 6 7 7 7 7 nan
nan 5 6 8 8 5 5 7 5 2 3 4 5 5 7 12 17 12 10 10 7 8 10 8 8 7 6 5 5 6 7 7 7 8 8 7 5 5 6 6 7 7 8 7 7 7 7 7 nan
nan 7 8 9 7 6 7 7 7 8 4 1 3 5 5 9 13 14 12 10 9 9 9 7 9 9 6 6 5 6 7 7 7 7 9 9 7 6 6 6 7 7 8 8 7 7 7 7 nan
nan 10 7 10 5 8 3 4 11 9 9 4 2 4 4 7 9 14 13 11 10 8 8 9 9 9 7 7 8 8 7 6 7 8 8 9 8 7 7 6 7 8 7 7 8 7 7 7 nan
nan 8 9 11 8 7 5 0 7 11 11 7 2 4 5 7 10 12 12 12 10 11 9 9 10 9 9 8 8 8 9 9 8 8 7 8 9 9 7 7 8 8 7 7 8 8 6 7 nan
nan 10 7 7 14 10 8 5 8 4 4 9 5 7 8 8 13 9 11 10 9 11 11 11 9 8 7 7 9 9 10 10 10 11 9 8 8 10 9 8 9 8 8 7 6 8 9 9 nan
nan 8 5 9 16 10 10 9 9 8 4 6 10 5 7 8 8 7 8 9 9 9 11 11 10 9 7 7 9 10 10 9 10 12 12 11 10 9 8 8 9 8 9 10 9 6 7 10 nan
nan 8 8 9 7 10 12 12 11 7 6 7 6 7 10 9 8 8 9 7 8 9 9 10 11 10 10 9 7 8 8 9 10 9 10 11 13 14 12 10 9 9 9 9 9 10 6 6 nan
nan 9 9 7 9 10 5 14 16 16 7 6 4 7 4 8 9 10 10 9 8 8 9 10 10 9 9 11 10 9 9 8 7 9 9 8 10 13 14 15 13 10 10 9 8 10 9 9 nan
nan 12 9 7 8 7 8 11 11 18 15 11 8 5 7 7 6 9 10 10 9 9 9 9 9 8 9 11 11 11 10 9 9 9 9 8 7 7 10 12 14 14 11 11 11 9 9 7 nan
nan 5 7 10 9 9 11 8 6 9 13 13 15 14 10 6 10 7 10 10 9 8 9 8 7 7 9 10 11 12 12 11 10 9 9 9 7 5 6 9 11 12 12 13 13 11 10 9 nan
nan 6 7 7 10 9 10 7 6 9 11 9 13 15 15 13 12 14 9 5 7 8 7 8 7 6 7 8 8 9 9 9 9 9 9 9 9 6 6 8 10 9 9 11 14 15 13 12 nan
nan 7 9 11 7 8 10 9 8 8 8 11 6 8 13 15 14 13 9 10 8 8 7 8 8 7 7 7 7 8 9 9 8 9 10 9 9 7 8 9 9 9 10 11 13 13 12 12 nan
nan 9 8 9 8 11 8 6 10 10 10 10 11 10 9 12 14 13 12 9 8 9 9 8 7 7 8 8 7 8 9 9 9 8 9 9 8 9 9 10 9 9 10 11 12 11 10 10 nan
nan 10 6 8 10 8 9 11 13 9 11 6 8 10 12 14 15 14 10 7 9 9 9 10 9 9 8 7 7 8 9 9 9 8 9 9 9 10 10 10 10 10 10 12 13 11 10 9 nan
nan 6 8 10 10 9 10 10 12 8 4 7 8 12 15 15 12 10 8 9 8 8 9 8 9 8 7 8 8 8 8 8 9 9 9 9 10 10 10 10 10 10 10 12 12 11 10 10 nan
nan nan nan nan nan nan nan nan nan nan nan nan nan nan nan nan nan nan nan nan nan nan nan nan nan nan nan nan nan nan nan nan nan nan nan nan nan nan nan nan nan nan nan nan nan nan nan nan nan
CAPE
123 0 0 0 0 0 0 0 0 0 0 0 0 0 0 2 0 0 37 544 969 1379 1752 1942 2503 2424 2325 2163 1618 1521 1355 979 588 197 147 191 93 171 3 2 3 8 10 6 1 1 4 3 0
95 0 0 0 0 0 0 0 0 0 0 0 0 0 33 128 245 250 636 957 1298 1484 1776 1887 2390 2496 2301 2108 1692 1484 951 578 439 186 65 45 91 375 52 6 1 1 3 3 0 0 4 0 0
116 0 0 0 0 0 0 0 0 0 0 0 0 11 123 252 296 426 487 1250 1437 1665 1820 1936 2190 2554 2337 2128 1897 1419 1179 739 425 115 0 0 72 468 146 2 0 0 0 0 0 0 0 2 1
4 0 0 0 0 0 0 0 0 0 0 0 0 203 212 98 450 470 1169 1381 1585 1672 1738 1999 2334 2456 2307 2116 1923 1452 1329 550 199 36 41 0 69 580 184 1 0 0 0 0 0 0 2 0 0
1 0 0 0 0 0 0 0 0 0 0 0 0 67 392 292 322 1124 1405 1180 1173 1453 1705 1945 2389 2381 2215 2053 1962 1561 990 453 171 227 88 36 117 535 269 41 0 0 0 0 0 0 0 0 0
27 0 0 0 0 0 0 0 0 0 0 0 79 303 322 349 889 1115 1366 1373 1027 1310 1910 1856 2069 2095 2061 2001 1593 1194 939 665 441 742 375 266 255 720 205 45 38 28 0 0 0 1 0 0 0
38 0 0 0 0 0 0 0 0 0 0 0 20 338 291 414 834 1207 1254 873 870 1244 1883 1883 1834 1652 1732 1574 1310 1160 923 623 535 755 809 801 711 656 135 63 54 63 43 12 0 0 0 0 0
0 0 0 0 0 0 0 0 0 0 0 0 21 128 348 452 836 963 1132 910 918 1118 1560 1752 1647 1497 1526 1246 875 671 402 374 800 767 216 143 104 170 167 76 103 69 40 16 8 0 0 19 2
0 5 5 0 0 0 0 0 0 0 0 0 9 61 176 567 875 1138 1382 961 862 1221 1112 1623 1428 1318 1276 988 527 197 89 128 352 68 30 69 263 176 113 41 69 71 32 15 12 13 12 19 4
37 4 0 0 0 0 0 0 0 0 0 0 0 0 0 815 867 944 953 923 818 1060 834 925 1209 1244 1027 700 439 164 47 28 122 232 87 74 75 80 56 36 27 42 28 19 14 12 11 7 2
10 2 0 0 0 0 0 0 0 0 0 0 0 0 0 57 543 599 685 756 659 747 687 754 1037 1116 984 736 400 156 63 33 19 46 76 66 56 61 60 36 27 31 7 7 2 4 8 1 0
31 0 18 19 0 0 0 0 0 0 0 0 0 0 0 0 468 619 1004 821 700 674 625 630 735 824 971 707 451 195 81 52 34 5 13 18 20 21 29 19 11 9 3 0 0 0 0 0 0
2 19 52 5 0 0 0 0 0 0 0 0 0 0 0 39 186 459 768 907 789 693 573 563 618 687 888 697 501 284 153 67 45 22 0 0 0 0 0 0 0 0 0 0 0 0 0 0 0
7 39 29 0 0 0 0 0 0 0 0 0 0 0 0 0 275 241 589 507 409 706 611 633 437 921 729 708 560 436 269 155 51 43 17 0 0 0 0 0 0 0 0 0 0 0 0 0 0
0 44 14 1 0 0 0 0 0 0 0 0 0 0 0 0 86 298 495 526 586 466 704 680 831 784 797 694 557 436 343 205 184 71 28 0 0 0 0 0 0 0 0 0 0 0 0 0 0
49 23 11 0 0 0 0 0 0 0 0 0 0 0 0 0 0 188 217 375 316 446 488 495 665 716 810 731 553 363 257 265 253 165 82 40 4 0 0 0 0 0 0 0 0 0 0 0 0
23 8 0 2 0 0 0 0 0 0 0 0 0 0 0 0 0 0 103 283 359 336 399 410 456 600 612 583 524 364 212 180 180 122 82 59 38 21 0 0 0 0 0 0 0 0 0 0 0
7 15 4 1 0 0 0 0 0 0 0 0 0 0 0 0 0 0 0 0 34 62 209 296 339 427 427 346 210 162 126 121 77 65 33 0 0 3 0 0 0 0 0 0 0 0 0 0 0
0 11 1 0 0 0 0 0 0 0 0 0 0 0 0 0 0 0 0 0 0 0 0 93 291 325 316 267 260 198 277 153 93 88 59 0 0 0 0 0 0 0 0 0 0 0 0 0 0
0 1 0 0 0 3 0 0 0 0 0 0 0 0 0 0 0 0 0 0 0 0 0 0 12 0 96 141 109 145 130 113 102 55 40 43 34 0 0 0 0 0 0 0 0 0 0 0 0
0 0 0 0 0 0 0 0 0 0 0 0 0 0 0 0 0 0 0 0 0 0 0 0 0 0 0 0 0 0 0 0 40 34 5 0 0 1 2 2 1 0 0 0 0 0 0 1 0
0 0 0 0 0 9 0 5 0 0 0 0 0 0 0 0 0 0 0 0 0 0 0 0 0 0 0 0 0 0 0 0 0 0 0 0 0 0 0 1 3 6 2 1 2 0 0 1 1
0 0 0 0 0 0 0 0 0 0 0 0 0 0 0 0 0 0 0 0 0 0 0 0 0 0 0 0 0 0 0 0 0 0 0 0 0 0 0 0 0 2 3 2 2 2 3 2 7
0 0 0 0 0 0 0 0 0 0 0 0 0 0 0 0 0 0 0 0 0 0 0 0 0 0 0 0 0 0 0 0 0 0 0 0 0 0 0 0 0 0 1 2 1 3 4 3 3
8 0 1 1 1 0 0 0 0 0 0 0 0 0 0 0 0 0 0 0 0 0 0 0 0 0 0 0 0 0 0 0 0 0 0 0 0 0 0 0 0 0 0 0 0 1 1 1 2
0 0 0 0 0 0 0 0 0 0 0 0 0 0 0 0 0 0 0 0 0 0 0 0 0 0 0 0 0 0 0 0 0 0 0 0 0 0 0 0 0 0 0 0 0 0 0 0 0
0 0 0 0 0 0 0 0 0 0 0 0 0 0 0 0 0 0 0 0 0 0 0 0 0 0 0 0 0 0 0 0 0 0 0 0 0 0 0 0 0 0 0 0 0 0 1 0 1
0 0 0 1 0 0 0 0 0 0 0 0 0 0 0 0 0 0 0 0 0 0 0 0 0 0 0 0 0 0 0 0 0 0 0 0 0 0 0 0 0 0 0 0 0 1 0 0 1
11 4 0 0 0 0 0 0 0 0 0 0 0 0 0 0 0 0 0 0 0 0 0 0 0 0 0 0 0 0 0 0 0 0 0 0 0 0 0 0 0 0 0 0 0 1 0 0 0
1 0 3 10 0 0 0 0 0 0 0 0 0 0 0 0 0 0 0 0 0 0 0 0 0 0 0 0 0 0 0 0 0 0 0 0 0 0 0 0 0 0 0 0 0 0 0 0 0